SCP
0 0 0 0 0 0 0 0 0 0 0 0 0 0 0 0 0 0 0 0 0 0 0 0 0 0 0 0 0 0 0 0 0 0 0 0 0 0 0 0 0 0 0
0 0 0 0 0 0 0 0 0 0 0 0 0 0 0 0 0 0 0 0 0 0 0 0 0 0 0 0 0 0 0 0 0 0 0 0 0 0 0 0 0 0 0
0 0 0 0 0 0 0 0 0 0 0 0 0 0 0 0 0 0 0 0 0 0 0 0 0 0 0 0 0 0 0 0 0 0 0 0 0 0 0 0 0 0 0
0 0 0 0 0 0 0 0 0 0 0 0 0 0 0 0 0 0 0 0 0 0 0 0 0 0 0 0 0 0 0 0 0 0 0 0 0 0 0 0 0 0 0
0 0 0 0 0 0 0 0 0 0 0 0 0 0 0 0 0 0 0 0 0 0 0 0 0 0 0 0 0 0 0 0 0 0 0 0 0 0 0 0 0 0 0
0 0 0 0 0 0 0 0 0 0 0 0 0 0 0 0 0 0 0 0 0 0 0 0 0 0 0 0 0 0 0 0 0 0 0 0 0 0 0 0 0 0 0
0 0 0 0 0 0 0 0 0 0 0 0 0 0 0 0 0 0 0 0 0 0 0 0 0 0 0 0 0 0 0 0 0 0 0 0 0 0 0 0 0 0 0
0 0 0 0 0 0 0 0 0 0 0 0 0 0 0 0 0 0 0 0 0 0 0 0 0 0 0 0 0 0 0 0 0 0 0 0 0 0 0 0 0 0 0
0 0 0 0 0 0 0 0 0 0 0 0 0 0 0 0 0 0 0 0 0 0 0 0 0 0 0 0 0 0 0 0 0 0 0 0 0 0 0 0 0 0 0
0 0 0 0 0 0 0 0 0 0 0 0 0 0 0 0 0 0 0 0 0 0 0 0 0 0 0 0 0 0 0 0 0 0 0 0 0 0 0 0 0 0 0
0 0 0 0 0 0 0 0 0 0 0 0 0 0 0 0 0 0 0 0 0 0 0 0 0 0 0 0 0 0 0 0 0 0 0 0 0 0 0 0 0 0 0
0 0 0 0 0 0 0 0 0 0 0 0 0 0 0 0 0 0 0 0 0 0 0 0 0 0 0 0 0 0 0 0 0 0 0 0 0 0 0 0 0 0 0
0 0 0 0 0 0 0 0 0 0 0 0 0 0 0 0 0 0 0 0 0 0 0 0 0 0 0 0 0 0 0 0 0 0 0 0 0 0 0 0 0 0 0
0 0 0 0 0 0 0 0 0 0 0 0 0 0 0 0 0 0 0 0 0 0 0 0 0 0 0 0 0 0 0 0 0 0 0 0 0 0 0 0 0 0 0
0 0 0 0 0 0 0 0 0 0 0 0 0 0 0 0 0 0 0 0 0 0 0 0 0 0 0 0 0 0 0 0 0 0 0 0 0 0 0 0 0 0 0
0 0 0 0 0 0 0 0 0 0 0 0 0 0 0 0 0 0 0 0 0 0 0 0 0 0 -0 -0 0 0 0 0 0 0 0 0 0 0 0 0 0 0 0
0 0 0 0 0 0 0 0 0 0 0 0 0 0 0 0 0 0 0 0 0 0 0 0 0 -0 -0 -0 0 0 0 0 -0 0 0 0 0 0 0 0 0 0 0
0 0 0 0 0 0 0 0 0 0 0 0 0 0 0 0 0 0 0 0 0 0 0 0 0 0 -0 -0 -0 -0 -0 0 0 0 -0 -0 0 0 0 0 0 0 0
0 0 0 0 0 0 0 0 0 0 0 0 0 0 0 0 0 -0 -0 -0 -0 -0 -0 -0 -0 -0 -0 -0 -0 -0 -0 -0 0 0 0 0 0 -0 0 0 0 0 0
0 0 0 0 0 0 0 0 0 0 0 0 0 0 0 -0 -0 -0 -0 -0 -0 -0 -0 -0 -0 -0 -0 -0 -0 -0 -0 -0 -0 -0 -0 -0 0 0 -0 0 0 0 0
0 0 0 0 0 0 0 0 0 0 0 0 0 0 -0 0 0 0 -0 -0 -0 -0 -0 -0 -0 -0 -0 -0 -0 -0 -0 -0 -0 -0 -0 -0 -0 -0 -0 0 0 0 0
0 0 0 0 0 0 0 0 0 0 0 0 0 0 0 0 0 0 0 0 0 -0 0 0 0 0 0 0 0 0 -0 -0 -0 -0 -0 -0 -0 -0 -0 0 0 0 0
0 0 0 0 0 0 0 0 0 0 0 0 0 0 0 0 0 0 0 0 0 0 0 0 0 0 0 0 0 0 0 0 0 0 0 -0 -0 -0 0 0 -0 0 0
0 0 0 0 0 0 0 0 0 0 0 0 0 0 0 0 0 0 0 0 0 0 0 0 0 0 0 0 0 0 0 0 0 0 0 0 0 -0 -0 0 0 0 0
0 0 0 0 0 0 0 0 0 0 0 0 0 0 0 0 0 0 0 0 0 0 0 0 0 0 0 0 0 0 0 0 0 0 0 0 0 -0 -0 -0 -0 0 0
0 0 0 0 0 0 0 0 0 0 0 0 0 0 0 0 0 0 0 0 0 0 0 0 0 0 0 0 0 0 0 0 0 -0 0 0 -0 0 -0 -0 -0 0 0
Wind_Speed_500mb
39 38 36 35 33 34 32 31 32 32 35 39 40 38 41 39 40 41 42 45 47 45 42 42 42 40 41 40 44 49 49 39 33 36 42 44 41 41 38 36 30 26 24
42 43 41 39 38 37 37 36 36 35 38 42 43 43 43 44 42 43 46 47 48 51 50 48 49 49 46 46 45 47 53 54 50 42 36 46 46 46 43 40 39 35 32
42 43 46 45 42 38 39 40 41 42 43 44 46 47 46 47 48 46 47 49 50 50 55 53 53 55 55 52 51 53 50 56 63 58 52 39 47 50 46 43 45 45 42
48 46 45 48 46 45 44 44 43 43 45 46 44 45 46 47 49 50 50 49 51 51 52 53 51 52 56 59 59 57 58 57 59 67 71 54 43 50 50 49 50 52 50
51 50 50 46 44 44 44 43 46 47 47 49 49 47 49 50 54 56 61 60 59 61 60 59 59 60 59 60 65 66 64 65 64 64 71 72 61 56 59 60 59 59 55
50 53 53 51 47 47 49 49 49 49 49 52 54 56 53 56 62 69 68 67 68 64 66 63 63 64 60 62 65 69 72 71 70 71 73 75 77 73 71 69 69 69 66
45 50 54 52 51 51 55 53 50 52 52 51 52 61 64 66 68 67 65 63 60 59 59 59 63 63 58 52 59 56 64 78 79 77 77 78 83 81 82 81 81 80 80
47 51 54 54 52 52 53 54 53 54 55 54 53 54 54 51 58 47 47 53 52 55 62 61 65 65 66 69 67 65 62 60 67 79 80 84 86 88 88 88 87 85 85
27 31 49 55 52 49 50 51 52 51 53 51 48 47 25 23 44 60 54 57 58 62 59 64 66 70 70 75 78 76 76 77 70 69 68 73 93 93 93 93 92 92 92
18 20 21 30 37 40 45 45 47 46 42 48 46 50 55 57 54 40 24 45 50 64 60 52 72 62 64 67 73 73 72 75 80 76 74 70 78 92 99 98 97 96 97
23 28 26 26 28 32 31 33 36 39 36 37 37 51 48 48 49 56 60 47 61 56 63 54 54 65 67 72 67 67 63 65 74 73 79 77 79 79 87 104 106 102 103
32 34 34 35 36 37 35 30 27 26 28 32 34 38 40 45 51 45 55 61 56 61 62 60 65 66 70 64 68 73 73 69 67 74 77 69 79 84 93 91 98 110 110
24 28 25 26 27 29 30 31 32 31 24 20 17 26 31 36 37 52 51 66 65 66 68 66 61 62 69 58 70 73 74 71 72 70 74 83 77 84 85 85 87 96 101
13 10 10 11 13 13 13 15 16 20 24 27 34 31 37 39 35 38 37 47 59 56 59 66 55 67 57 76 73 69 87 75 80 75 76 76 76 78 85 73 81 87 95
8 7 6 6 6 6 8 10 15 14 17 20 22 26 29 32 35 37 38 41 41 51 67 63 52 51 51 54 60 75 78 89 85 79 91 75 88 79 81 76 95 93 92
1 4 8 10 11 13 15 17 19 20 22 24 27 29 30 32 34 37 39 41 40 47 57 72 80 77 75 73 68 68 69 74 80 83 86 93 86 70 83 79 78 86 84
4 5 7 11 14 16 17 19 22 25 28 29 30 32 33 35 38 41 44 46 47 50 65 81 82 83 83 83 81 76 77 87 94 89 85 85 88 86 85 82 81 86 88
8 6 8 11 14 15 18 20 24 28 30 32 34 35 39 43 46 47 50 53 56 57 68 85 86 90 87 85 86 86 83 76 81 88 88 88 85 94 89 86 85 80 92
8 8 8 9 9 11 16 21 23 25 29 32 36 40 45 49 56 63 66 68 70 75 78 86 99 92 94 98 105 97 99 91 85 80 84 94 97 96 92 95 97 92 81
13 10 6 4 4 10 17 21 24 28 34 39 43 46 48 54 59 62 67 70 75 80 83 88 95 100 95 93 92 102 118 109 110 113 112 103 89 90 95 97 94 92 93
12 8 5 2 5 12 20 25 29 33 37 40 43 45 49 52 54 58 63 68 71 75 79 84 91 95 98 102 93 90 96 100 115 108 97 115 114 107 99 96 97 88 81
11 8 5 3 9 14 21 28 32 34 37 39 41 42 43 47 50 52 54 55 57 64 69 72 74 83 89 91 93 87 93 95 107 101 105 129 112 121 119 109 100 118 111
9 4 2 6 10 15 22 26 29 30 33 36 38 41 42 45 50 55 56 57 57 55 56 61 69 72 85 83 84 92 90 93 100 109 99 118 106 114 110 112 97 90 96
9 2 2 6 10 14 19 25 28 30 32 34 37 40 43 46 52 59 63 63 62 61 62 64 65 71 70 72 66 65 78 87 99 101 89 103 98 110 102 104 102 89 91
8 4 2 5 10 15 19 26 29 32 34 34 36 39 43 49 54 58 61 64 66 67 67 67 68 67 67 66 64 72 75 77 97 102 91 87 104 98 106 113 102 97 86
8 6 6 7 10 16 21 27 32 34 36 37 36 37 41 48 51 53 58 62 68 71 77 80 77 73 72 73 70 64 70 78 85 99 75 83 106 95 113 102 89 84 88
Wind_Direction_500mb
257 259 260 264 264 273 277 276 274 274 278 283 281 281 279 278 275 274 273 277 283 288 285 283 280 273 263 259 267 268 274 275 283 277 258 246 242 241 238 238 236 237 234
256 259 262 263 264 265 270 273 273 272 268 270 275 281 283 282 281 280 279 280 285 287 288 286 284 279 269 258 258 258 263 267 273 279 283 262 248 241 241 239 238 236 236
258 255 257 261 265 267 267 265 266 268 270 272 274 279 281 283 286 287 284 281 281 283 287 288 285 280 275 269 256 256 255 258 261 269 271 276 260 245 240 241 237 236 240
254 258 253 257 262 265 265 264 266 268 273 277 280 283 282 282 285 286 290 291 291 286 288 290 290 284 280 274 269 259 257 252 254 255 263 266 261 249 243 240 237 239 239
248 253 258 260 256 253 251 258 266 269 273 277 279 283 282 285 285 285 287 290 293 293 294 294 292 290 282 276 273 268 261 258 255 250 252 262 258 249 245 244 242 244 245
238 248 254 260 250 248 252 255 254 265 272 276 276 277 276 280 283 285 286 287 288 292 288 288 291 290 290 284 274 268 265 260 259 256 251 253 258 256 253 249 249 250 250
247 240 253 254 249 252 255 257 259 262 267 270 268 275 282 282 283 284 291 297 295 299 295 291 284 285 288 287 284 277 273 262 261 259 258 255 253 254 257 254 253 253 255
254 238 241 250 254 255 259 263 265 262 263 266 269 277 287 288 295 299 301 300 301 299 301 302 295 292 287 289 288 284 279 277 269 262 261 262 257 255 253 254 257 257 257
266 255 244 245 253 257 257 262 267 268 270 275 276 276 281 283 293 299 297 296 298 300 298 297 295 297 294 292 290 292 287 281 276 266 263 267 260 259 258 257 255 256 257
263 264 256 251 255 261 262 264 271 275 278 277 283 285 280 289 284 293 303 294 290 302 296 303 301 296 298 297 294 295 292 286 282 277 270 267 267 262 259 259 258 259 257
231 238 241 242 251 253 269 272 275 274 275 282 292 290 294 297 291 287 296 296 303 302 302 311 312 309 302 304 306 306 303 298 294 284 279 270 267 265 264 261 259 259 259
248 254 254 258 255 262 262 264 273 277 297 292 297 297 301 299 300 298 301 300 297 302 305 308 309 311 307 312 306 305 310 301 302 297 289 281 276 272 266 268 259 259 260
251 250 248 252 255 261 267 268 268 275 276 283 287 296 305 306 310 304 299 306 289 304 301 312 312 314 316 304 307 305 308 304 300 298 296 292 279 276 269 266 262 260 260
226 227 234 237 243 250 256 262 264 267 265 268 275 276 282 288 295 296 308 317 322 310 306 306 307 317 313 311 307 299 309 295 304 298 297 298 301 291 284 279 271 263 262
179 182 206 241 263 287 294 297 301 299 301 299 301 300 301 301 303 304 304 306 311 316 308 307 313 310 318 314 308 308 305 312 304 300 301 294 301 294 296 286 269 270 267
238 303 300 302 309 311 320 322 321 327 327 315 320 319 320 321 324 326 326 323 318 312 304 304 308 303 297 293 297 301 305 306 308 299 306 304 300 289 301 289 294 288 270
243 279 301 313 312 319 325 334 333 335 337 346 340 343 343 343 342 335 336 336 332 325 313 310 314 314 313 311 307 303 297 291 294 299 300 304 301 301 301 281 291 288 293
272 283 297 304 307 324 333 341 352 353 352 355 0 1 1 356 353 352 350 346 341 339 331 325 327 327 327 327 324 318 310 302 291 289 294 293 292 292 295 294 290 291 296
263 281 287 285 318 346 359 6 8 11 13 15 11 7 2 358 356 355 353 350 348 344 340 335 333 334 333 334 331 325 322 315 310 300 286 281 284 285 287 288 290 291 287
244 242 237 265 352 13 20 17 18 19 17 14 11 7 1 357 352 350 347 344 342 339 337 334 331 331 333 334 331 329 322 321 316 314 309 305 300 291 290 289 289 287 283
221 205 191 220 40 25 20 20 14 15 12 8 3 360 355 350 346 346 342 342 340 338 336 334 330 328 330 332 332 327 319 317 317 320 311 312 308 301 289 287 287 286 282
196 186 164 78 30 21 17 19 13 9 6 359 354 351 346 341 338 338 338 339 342 342 338 337 334 330 329 329 327 319 318 316 313 315 317 313 315 310 308 302 288 283 283
198 188 75 34 29 15 9 7 2 360 357 351 347 343 342 341 338 338 338 339 339 340 339 336 332 332 328 331 325 318 313 308 304 312 315 308 314 311 310 306 303 296 287
192 188 39 22 10 359 351 346 350 351 352 349 347 345 343 344 344 342 340 339 338 339 339 337 334 332 331 330 327 318 309 310 309 309 308 296 303 306 316 309 307 299 293
190 202 277 347 346 340 334 334 340 343 345 348 348 347 345 345 345 342 338 338 340 340 338 334 331 329 329 330 334 330 330 319 305 300 297 307 301 297 304 307 305 302 296
206 225 267 306 324 334 332 328 334 340 342 343 344 342 341 341 344 346 344 343 339 338 336 332 330 331 332 331 333 340 339 333 324 316 309 309 302 302 304 301 299 294 292
Wind_Speed_850mb
39 38 36 35 33 34 32 31 32 32 35 39 40 38 41 39 40 41 42 45 47 45 42 42 42 40 41 40 44 49 49 39 33 36 42 44 41 41 38 36 30 26 24
42 43 41 39 38 37 37 36 36 35 38 42 43 43 43 44 42 43 46 47 48 51 50 48 49 49 46 46 45 47 53 54 50 42 36 46 46 46 43 40 39 35 32
42 43 46 45 42 38 39 40 41 42 43 44 46 47 46 47 48 46 47 49 50 50 55 53 53 55 55 52 51 53 50 56 63 58 52 39 47 50 46 43 45 45 42
48 46 45 48 46 45 44 44 43 43 45 46 44 45 46 47 49 50 50 49 51 51 52 53 51 52 56 59 59 57 58 57 59 67 71 54 43 50 50 49 50 52 50
51 50 50 46 44 44 44 43 46 47 47 49 49 47 49 50 54 56 61 60 59 61 60 59 59 60 59 60 65 66 64 65 64 64 71 72 61 56 59 60 59 59 55
50 53 53 51 47 47 49 49 49 49 49 52 54 56 53 56 62 69 68 67 68 64 66 63 63 64 60 62 65 69 72 71 70 71 73 75 77 73 71 69 69 69 66
45 50 54 52 51 51 55 53 50 52 52 51 52 61 64 66 68 67 65 63 60 59 59 59 63 63 58 52 59 56 64 78 79 77 77 78 83 81 82 81 81 80 80
47 51 54 54 52 52 53 54 53 54 55 54 53 54 54 51 58 47 47 53 52 55 62 61 65 65 66 69 67 65 62 60 67 79 80 84 86 88 88 88 87 85 85
27 31 49 55 52 49 50 51 52 51 53 51 48 47 25 23 44 60 54 57 58 62 59 64 66 70 70 75 78 76 76 77 70 69 68 73 93 93 93 93 92 92 92
18 20 21 30 37 40 45 45 47 46 42 48 46 50 55 57 54 40 24 45 50 64 60 52 72 62 64 67 73 73 72 75 80 76 74 70 78 92 99 98 97 96 97
23 28 26 26 28 32 31 33 36 39 36 37 37 51 48 48 49 56 60 47 61 56 63 54 54 65 67 72 67 67 63 65 74 73 79 77 79 79 87 104 106 102 103
32 34 34 35 36 37 35 30 27 26 28 32 34 38 40 45 51 45 55 61 56 61 62 60 65 66 70 64 68 73 73 69 67 74 77 69 79 84 93 91 98 110 110
24 28 25 26 27 29 30 31 32 31 24 20 17 26 31 36 37 52 51 66 65 66 68 66 61 62 69 58 70 73 74 71 72 70 74 83 77 84 85 85 87 96 101
13 10 10 11 13 13 13 15 16 20 24 27 34 31 37 39 35 38 37 47 59 56 59 66 55 67 57 76 73 69 87 75 80 75 76 76 76 78 85 73 81 87 95
8 7 6 6 6 6 8 10 15 14 17 20 22 26 29 32 35 37 38 41 41 51 67 63 52 51 51 54 60 75 78 89 85 79 91 75 88 79 81 76 95 93 92
1 4 8 10 11 13 15 17 19 20 22 24 27 29 30 32 34 37 39 41 40 47 57 72 80 77 75 73 68 68 69 74 80 83 86 93 86 70 83 79 78 86 84
4 5 7 11 14 16 17 19 22 25 28 29 30 32 33 35 38 41 44 46 47 50 65 81 82 83 83 83 81 76 77 87 94 89 85 85 88 86 85 82 81 86 88
8 6 8 11 14 15 18 20 24 28 30 32 34 35 39 43 46 47 50 53 56 57 68 85 86 90 87 85 86 86 83 76 81 88 88 88 85 94 89 86 85 80 92
8 8 8 9 9 11 16 21 23 25 29 32 36 40 45 49 56 63 66 68 70 75 78 86 99 92 94 98 105 97 99 91 85 80 84 94 97 96 92 95 97 92 81
13 10 6 4 4 10 17 21 24 28 34 39 43 46 48 54 59 62 67 70 75 80 83 88 95 100 95 93 92 102 118 109 110 113 112 103 89 90 95 97 94 92 93
12 8 5 2 5 12 20 25 29 33 37 40 43 45 49 52 54 58 63 68 71 75 79 84 91 95 98 102 93 90 96 100 115 108 97 115 114 107 99 96 97 88 81
11 8 5 3 9 14 21 28 32 34 37 39 41 42 43 47 50 52 54 55 57 64 69 72 74 83 89 91 93 87 93 95 107 101 105 129 112 121 119 109 100 118 111
9 4 2 6 10 15 22 26 29 30 33 36 38 41 42 45 50 55 56 57 57 55 56 61 69 72 85 83 84 92 90 93 100 109 99 118 106 114 110 112 97 90 96
9 2 2 6 10 14 19 25 28 30 32 34 37 40 43 46 52 59 63 63 62 61 62 64 65 71 70 72 66 65 78 87 99 101 89 103 98 110 102 104 102 89 91
8 4 2 5 10 15 19 26 29 32 34 34 36 39 43 49 54 58 61 64 66 67 67 67 68 67 67 66 64 72 75 77 97 102 91 87 104 98 106 113 102 97 86
8 6 6 7 10 16 21 27 32 34 36 37 36 37 41 48 51 53 58 62 68 71 77 80 77 73 72 73 70 64 70 78 85 99 75 83 106 95 113 102 89 84 88
Wind_Direction_850mb
257 259 260 264 264 273 277 276 274 274 278 283 281 281 279 278 275 274 273 277 283 288 285 283 280 273 263 259 267 268 274 275 283 277 258 246 242 241 238 238 236 237 234
256 259 262 263 264 265 270 273 273 272 268 270 275 281 283 282 281 280 279 280 285 287 288 286 284 279 269 258 258 258 263 267 273 279 283 262 248 241 241 239 238 236 236
258 255 257 261 265 267 267 265 266 268 270 272 274 279 281 283 286 287 284 281 281 283 287 288 285 280 275 269 256 256 255 258 261 269 271 276 260 245 240 241 237 236 240
254 258 253 257 262 265 265 264 266 268 273 277 280 283 282 282 285 286 290 291 291 286 288 290 290 284 280 274 269 259 257 252 254 255 263 266 261 249 243 240 237 239 239
248 253 258 260 256 253 251 258 266 269 273 277 279 283 282 285 285 285 287 290 293 293 294 294 292 290 282 276 273 268 261 258 255 250 252 262 258 249 245 244 242 244 245
238 248 254 260 250 248 252 255 254 265 272 276 276 277 276 280 283 285 286 287 288 292 288 288 291 290 290 284 274 268 265 260 259 256 251 253 258 256 253 249 249 250 250
247 240 253 254 249 252 255 257 259 262 267 270 268 275 282 282 283 284 291 297 295 299 295 291 284 285 288 287 284 277 273 262 261 259 258 255 253 254 257 254 253 253 255
254 238 241 250 254 255 259 263 265 262 263 266 269 277 287 288 295 299 301 300 301 299 301 302 295 292 287 289 288 284 279 277 269 262 261 262 257 255 253 254 257 257 257
266 255 244 245 253 257 257 262 267 268 270 275 276 276 281 283 293 299 297 296 298 300 298 297 295 297 294 292 290 292 287 281 276 266 263 267 260 259 258 257 255 256 257
263 264 256 251 255 261 262 264 271 275 278 277 283 285 280 289 284 293 303 294 290 302 296 303 301 296 298 297 294 295 292 286 282 277 270 267 267 262 259 259 258 259 257
231 238 241 242 251 253 269 272 275 274 275 282 292 290 294 297 291 287 296 296 303 302 302 311 312 309 302 304 306 306 303 298 294 284 279 270 267 265 264 261 259 259 259
248 254 254 258 255 262 262 264 273 277 297 292 297 297 301 299 300 298 301 300 297 302 305 308 309 311 307 312 306 305 310 301 302 297 289 281 276 272 266 268 259 259 260
251 250 248 252 255 261 267 268 268 275 276 283 287 296 305 306 310 304 299 306 289 304 301 312 312 314 316 304 307 305 308 304 300 298 296 292 279 276 269 266 262 260 260
226 227 234 237 243 250 256 262 264 267 265 268 275 276 282 288 295 296 308 317 322 310 306 306 307 317 313 311 307 299 309 295 304 298 297 298 301 291 284 279 271 263 262
179 182 206 241 263 287 294 297 301 299 301 299 301 300 301 301 303 304 304 306 311 316 308 307 313 310 318 314 308 308 305 312 304 300 301 294 301 294 296 286 269 270 267
238 303 300 302 309 311 320 322 321 327 327 315 320 319 320 321 324 326 326 323 318 312 304 304 308 303 297 293 297 301 305 306 308 299 306 304 300 289 301 289 294 288 270
243 279 301 313 312 319 325 334 333 335 337 346 340 343 343 343 342 335 336 336 332 325 313 310 314 314 313 311 307 303 297 291 294 299 300 304 301 301 301 281 291 288 293
272 283 297 304 307 324 333 341 352 353 352 355 0 1 1 356 353 352 350 346 341 339 331 325 327 327 327 327 324 318 310 302 291 289 294 293 292 292 295 294 290 291 296
263 281 287 285 318 346 359 6 8 11 13 15 11 7 2 358 356 355 353 350 348 344 340 335 333 334 333 334 331 325 322 315 310 300 286 281 284 285 287 288 290 291 287
244 242 237 265 352 13 20 17 18 19 17 14 11 7 1 357 352 350 347 344 342 339 337 334 331 331 333 334 331 329 322 321 316 314 309 305 300 291 290 289 289 287 283
221 205 191 220 40 25 20 20 14 15 12 8 3 360 355 350 346 346 342 342 340 338 336 334 330 328 330 332 332 327 319 317 317 320 311 312 308 301 289 287 287 286 282
196 186 164 78 30 21 17 19 13 9 6 359 354 351 346 341 338 338 338 339 342 342 338 337 334 330 329 329 327 319 318 316 313 315 317 313 315 310 308 302 288 283 283
198 188 75 34 29 15 9 7 2 360 357 351 347 343 342 341 338 338 338 339 339 340 339 336 332 332 328 331 325 318 313 308 304 312 315 308 314 311 310 306 303 296 287
192 188 39 22 10 359 351 346 350 351 352 349 347 345 343 344 344 342 340 339 338 339 339 337 334 332 331 330 327 318 309 310 309 309 308 296 303 306 316 309 307 299 293
190 202 277 347 346 340 334 334 340 343 345 348 348 347 345 345 345 342 338 338 340 340 338 334 331 329 329 330 334 330 330 319 305 300 297 307 301 297 304 307 305 302 296
206 225 267 306 324 334 332 328 334 340 342 343 344 342 341 341 344 346 344 343 339 338 336 332 330 331 332 331 333 340 339 333 324 316 309 309 302 302 304 301 299 294 292